Location: Unspecified
(48.2082°N, 0.0000°E)
Time: 03:08:35
(UTC+00:00)

Transit 4A - Pass Details

Date: 21 June 2019
Orbit: 866 x 978 km, 66.8° (Epoch: 13 October)

Event Time Altitude Azimuth Distance (km) Brightness Sun altitude
Rises 10:38:24 0° 261° (W) 3,639 10.8 60.2°
Reaches altitude 10° 10:41:26 10° 274° (W) 2,709 10.2 60.6°
Maximum altitude 10:46:35 25° 329° (NNW) 1,852 9.5 61.1°
Drops below altitude 10° 10:51:48 10° 23° (NNE) 2,739 10.3 61.6°
Sets 10:54:54 0° 37° (NE) 3,688 10.9 61.9°
